Location: Oshawa
(43.9000°N, 78.8670°W)
Time: 14:44:56
(UTC-04:00)

Iridium 54 - Visible Passes

Search period start: 17 October 2017 00:00
Search period end: 27 October 2017 00:00
Orbit: 776 x 779 km, 86.4° (Epoch: 16 October)

Date Brightness Start Highest point End Pass type
(mag) Time Alt. Az. Time Alt. Az. Time Alt. Az.
17 Oct 8.2 05:57:53 10° NNE 06:01:46 21° ENE 06:05:39 10° ESE visible
17 Oct 5.9 18:55:35 10° SSE 19:00:24 40° E 19:05:15 10° NNE visible
17 Oct 7.8 20:37:00 10° SW 20:41:16 25° WNW 20:45:33 10° NNW visible
18 Oct 8.8 05:26:02 10° NE 05:27:51 12° ENE 05:29:40 10° E visible
18 Oct 6.7 20:02:33 10° SSW 20:07:31 44° W 20:12:31 10° N visible
19 Oct 6.5 06:30:40 10° N 06:35:46 51° E 06:40:50 10° SSE visible
19 Oct 5.7 19:28:42 10° S 19:33:54 80° W 19:39:10 10° N visible
20 Oct 7.6 05:57:32 10° NNE 06:02:03 29° ENE 06:06:33 10° SE visible
20 Oct 5.6 18:55:20 10° SSE 19:00:26 57° E 19:05:33 10° N visible
20 Oct 8.3 20:38:02 10° WSW 20:41:33 18° WNW 20:45:06 10° NNW visible
21 Oct 8.4 05:24:54 10° NNE 05:28:13 17° ENE 05:31:30 10° ESE visible
21 Oct 5.6 07:04:15 10° N 07:09:25 63° W 07:14:33 10° SSW visible
21 Oct 7.4 20:03:08 10° SW 20:07:44 31° W 20:12:22 10° NNW visible
22 Oct 5.8 06:30:40 10° N 06:35:55 73° E 06:41:07 10° S visible
22 Oct 6.3 19:28:57 10° SSW 19:34:03 56° W 19:39:12 10° N visible
23 Oct 6.9 05:57:21 10° N 06:02:17 41° E 06:07:11 10° SSE visible
23 Oct 5.5 18:55:17 10° S 19:00:29 82° E 19:05:44 10° N visible
23 Oct 8.7 20:39:37 10° W 20:41:55 13° WNW 20:44:13 10° NW visible
24 Oct 7.9 05:24:22 10° NNE 05:28:32 23° ENE 05:32:39 10° SE visible
24 Oct 5.9 07:04:30 10° NNW 07:09:27 44° W 07:14:21 10° SSW visible
24 Oct 8.0 20:03:57 10° SW 20:08:00 23° WNW 20:12:05 10° NNW visible
25 Oct 8.6 04:52:09 10° NE 04:54:38 13° ENE 04:57:06 10° E visible
25 Oct 5.5 06:30:47 10° N 06:36:01 79° W 06:41:14 10° S visible
25 Oct 7.0 19:29:22 10° SSW 19:34:14 39° W 19:39:08 10° NNW visible
26 Oct 6.2 05:57:18 10° N 06:02:28 58° E 06:07:35 10° SSE visible
26 Oct 5.9 18:55:25 10° S 19:00:35 71° W 19:05:50 10° N visible
